Other Public Products
Issued by NWS Grand Forks, ND

Home | Current Version | Previous Version | Graphics & Text | Print | Product List | Glossary On
Versions: 1 2 3 4 5 6 7 8 9 10 11 12 13 14 15 16 17 18 19 20 21 22 23 24 25 26 27 28 29 30 31 32 33 34 35 36 37 38 39 40 41 42 43 44 45 46 47 48 49 50
000
FPUS83 KFGF 250310
OPUFGF
PRAIRIE TO PINES WEATHER ROUNDUP
NATIONAL WEATHER SERVICE EASTERN NORTH DAKOTA/GRAND FORKS ND
1000 PM CDT SUN JUL 24 2016

 **SATELLITE DATA USED TO AUGMENT SKY COVER AT AUTOMATED STATIONS**
 *****  WEATHER ACROSS EASTERN NORTH DAKOTA  *****

CITY           SKY/WX    TMP DP  RH WIND       PRES   REMARKS
GRAND FORKS    CLEAR     67  61  81 W6        29.94R
GRAND FORKS AF CLEAR     68  61  78 W6        29.95R
GRAND CITY NWS   N/A     68 N/A N/A W5          N/A
BUXTON           N/A     70  65  85 W3          N/A
DEVILS LAKE    CLEAR     66  59  78 W8        29.99R
FARGO          CLEAR     70  61  73 W7        29.96R
WAHPETON ARPT  CLEAR     66  59  77 W6        29.98S
$$

 *****  WEATHER ACROSS CENTRAL AND WESTERN NORTH DAKOTA  *****

CITY           SKY/WX    TMP DP  RH WIND       PRES   REMARKS
JAMESTOWN      CLEAR     69  59  70 W3        30.01R
BISMARCK       CLEAR     67  62  84 SE5       30.03R
MINOT          CLEAR     70  61  73 CALM      29.99R
MINOT AFB      CLEAR     69  58  69 SE2       29.98R
GARRISON         N/A     71  59  65 CALM      30.00S
WILLISTON      CLEAR     73  58  59 CALM      29.98R
DICKINSON      CLEAR     68  53  58 SE10      30.02R
HETTINGER      CLEAR     74  51  44 E12       30.06S
$$

 *****  OTHER OBSERVATIONS NORTHEAST NORTH DAKOTA  *****

CITY           SKY/WX    TMP DP  RH WIND       PRES   REMARKS
WALHALLA       NOT AVBL
LANGDON        FAIR      64  63  94 W6        29.98R
CAVALIER       FAIR      66  63  88 W6        29.93R
GRAFTON        FAIR      70  66  88 W6        29.94R
CANDO          NOT AVBL
FORT TOTTEN      N/A     68  59  73 W3        29.95
ROLLA            N/A     63  57  82 W6        30.00R
RUGBY          NOT AVBL
 ***** THE ABOVE OBSERVATIONS ARE NON NWS ARE NOT QUALITY
        CONTROLLED AND MAY MIS-REPORT RAIN FOR SNOW...
$$

 *****  OTHER OBSERVATIONS SOUTHEAST NORTH DAKOTA *****

CITY           SKY/WX    TMP DP  RH WIND       PRES   REMARKS
COOPERSTOWN    NOT AVBL
VALLEY CITY      N/A     66  61  82 W6        30.02R
OAKES            N/A    N/A N/A N/A MISG        N/A
GWINNER        FAIR      66  61  82 W7        30.02R
SHEYENNE NWR     N/A     69  59  69 W5        29.95S
BUFFALO          N/A     67  56  67 NW5         N/A
WYNDMERE       NOT AVBL
 ***** THE ABOVE OBSERVATIONS ARE NON NWS ARE NOT QUALITY
       CONTROLLED AND MAY MIS-REPORT RAIN FOR SNOW...
$$

  *****  WEATHER ACROSS NORTHERN MINNESOTA  *****

CITY           SKY/WX    TMP DP  RH WIND       PRES   REMARKS
FLAG ISLAND    PTCLDY    70  63  78 W12       29.88R
WARROAD        CLEAR     66  61  82 W3        29.91R
ROSEAU         CLEAR     68  63  83 W6        29.91R
HALLOCK        CLEAR     70  66  88 W5        29.92R
THF RVR FALLS  CLEAR     67  62  84 W7        29.95R
HALSTAD        NOT AVBL
FOSSTON        CLEAR     64  59  82 SW5       29.96R
BAUDETTE       CLEAR     66  60  81 W7        29.89R
WASKISH        MOCLDY    72  63  73 W12G18    29.91R
CROOKSTON      CLEAR     66  63  88 W7        29.95R
$$
  *****  WEATHER ACROSS CENTRAL AND WEST MINNESOTA  *****

CITY           SKY/WX    TMP DP  RH WIND       PRES   REMARKS
BEMIDJI        CLEAR     68  61  77 W7        29.94R
PARK RAPIDS    CLEAR     68  60  75 W8        29.97R
WADENA         CLEAR     66  57  72 W5        29.98R
DETROIT LAKES  CLEAR     68  59  73 W6        29.99R
MOORHEAD       CLEAR     70  61  73 W5        29.98R
FERGUS FALLS   CLEAR     66  61  82 W5        29.99R
ELBOW LAKE     FAIR      66  60  81 NW5       30.00R
MORRIS MN      CLEAR     66  63  88 W5        30.00R
STAPLES        CLEAR     64  59  82 W7        29.97R
WHEATON        NOT AVBL
$$
  *****  WEATHER ELSEWHERE ACROSS MINNESOTA  *****

CITY           SKY/WX    TMP DP  RH WIND       PRES   REMARKS
DULUTH         PTCLDY    69  61  75 W10       29.89R
INTRNTL FALLS  MOCLDY    65  59  81 W5        29.87R
ELY            PTCLDY    66  59  77 W5        29.87R
CLOQUET        PTCLDY    72  59  64 W7        29.91R
BRAINERD       CLEAR     72  61  68 W7        29.95R
HIBBING        CLEAR     67  58  72 W7        29.90R
ALEXANDRIA     CLEAR     68  59  73 W5        30.01R
SAINT CLOUD    CLEAR     71  60  68 W8        29.96R
MINNEAPOLIS    PTCLDY    77  63  61 W8        29.96R
$$

  *****  WEATHER ACROSS SOUTH DAKOTA  *****

CITY           SKY/WX    TMP DP  RH WIND       PRES   REMARKS
SIOUX FALLS    PTCLDY    71  64  78 W3        30.07R
BROOKINGS      CLEAR     70  64  81 W5        30.06R
WATERTOWN      CLEAR     72  59  63 NW3       30.06R
HURON          CLEAR     73  59  61 CALM      30.05R
SISSETON         N/A     69  59  70 W5        30.00R
ABERDEEN       CLEAR     68  60  75 S3        30.04R
MITCHELL       CLEAR     73  61  65 SW5       30.07R
PIERRE         CLEAR     75  46  35 CALM      30.05R
MOBRIDGE       CLEAR     74  56  53 E7        30.03R
RAPID CITY     CLEAR     71  51  49 SE5       30.09R
$$

  *****  SOME WEATHER IN NEARBY STATES *****

CITY           SKY/WX    TMP DP  RH WIND       PRES   REMARKS
GLASGOW MT     CLEAR     73  53  49 VRB6      29.96S
GREAT FALLS MT CLEAR     75  38  26 E7        29.99S
CHEYENNE WY    CLEAR     61  54  77 S9        30.29R
SCOTTSBLUFF NE CLOUDY    71  55  56 SE9       30.14R
OMAHA NE       PTCLDY    74  68  81 N9        30.02R
DES MOINES IA  CLOUDY    79  65  62 N6        29.99R
DAVENPORT IA   CLOUDY    71  69  93 CALM      29.94R
CHICAGO IL     CLOUDY    78  73  84 W3        29.89R
EAU CLAIRE WI  CLEAR     71  63  75 W5        29.92R
LA CROSSE WI   CLEAR     76  66  71 NW8       29.92R
$$

  *****  SOME NATIONAL WEATHER *****

CITY           SKY/WX    TMP DP  RH WIND       PRES   REMARKS
LA GUARDIA NY  MOCLDY    85  67  54 SW9       29.96S
RALEIGH NC     MOCLDY    82  74  76 S3        30.04R
ATLANTA GA     PTCLDY    84  70  62 SW3       30.07R
NEW ORLEANS LA MOCLDY    83  78  85 CALM      29.97S HX  93
OKLAHOMA CITY  PTCLDY    86  72  62 SE6       29.94R HX  92
ALBUQUERQUE NM CLOUDY    78  52  40 N17       30.20R
SALT LAKE CITY PTCLDY    86  38  18 N6        30.01S
LOS ANGELES CA PTCLDY    72  66  81 W9        29.89R
BOISE ID       CLEAR     86  36  16 W6        29.96R
SEATTLE WA     CLEAR     76  57  51 N10       30.03S
$$

*** WEATHER ACROSS MANITOBA...SASKATCHEWAN AND ONTARIO ***
                ***ONTARIO***

CITY           SKY/WX    TMP DP  RH WIND       PRES   REMARKS
GERALDTON      PTCLDY    68  63  83 W8        29.69S
THUNDER BAY    PTCLDY    68  61  77 SW6       29.75R
SIOUX LOOKOUT  MOCLDY    64  63  94 W8G17     29.78R
TORONTO        MOCLDY    72  66  83 SE6       29.91F
BIG TROUT LK   CLOUDY    61  61 100 NW12G22   29.58R
PICKLE LAKE    NOT AVBL
DRYDEN         CLOUDY    63  61  94 W10G20    29.83R
KENORA         PTCLDY    64  57  77 NW5       29.88R
$$
                *** MANITOBA***

CITY           SKY/WX    TMP DP  RH WIND       PRES   REMARKS
BRANDON        PTCLDY    63  59  88 W7        29.95R
DAUPHIN        PTCLDY    66  61  82 W8        29.90R
ISLAND LAKE    PTCLDY    64  61  88 NW6       29.77R
PILOT MOUND      N/A     66  61  82 W3          N/A
THE PAS        MOCLDY    72  59  64 SW6       29.80S
THOMPSON       PTCLDY    63  59  88 E3        29.78R
WINNIPEG       PTCLDY    63  61  94 W7        29.90R
LYNN LAKE      CLOUDY    68  57  68 MISG      29.70F
CHURCHILL      MOCLDY    50  50 100 E6        29.82S
GILLAM         PTCLDY    63  54  72 NE7       29.77R
$$
                ***SASKATCHEWAN***

CITY           SKY/WX    TMP DP  RH WIND       PRES   REMARKS
ESTEVAN        CLEAR     68  61  77 NE5       29.99S
KINDERSLEY     PTCLDY    68  63  83 SE6       29.94S
LLOYDMINSTER   PTCLDY    70  54  56 SW9       29.86F
PRINCE ALBERT  PTCLDY    68  59  73 SW6       29.84S
REGINA         NOT AVBL
YORKTON        CLEAR     66  57  72 W6        29.94R  C1F1C2F2C3F3C4F4C5F5C6F6C7F7C8F8C9F9CaFaCbFbCcFcCdFdCe!



USA.gov is the U.S. government's official web portal to all federal, state and local government web resources and services.